Time,TemperatureF,DewpointF,PressureIn,WindDirection,WindDirectionDegrees,WindSpeedMPH,WindSpeedGustMPH,Humidity,HourlyPrecipIn,Conditions,Clouds,dailyrainin,SoftwareType,DateUTC
2013-08-14 00:01:00,68.7,65.3,0.00,West,270,0.0,0.0,89,0.00,,,0.00,WUHU216HW,2013-08-14 04:01:00,
2013-08-14 00:06:00,68.7,65.3,0.00,West,270,0.0,0.0,89,0.00,,,0.00,WUHU216HW,2013-08-14 04:06:00,
2013-08-14 00:11:00,68.7,65.3,0.00,West,270,0.0,0.0,89,0.00,,,0.00,WUHU216HW,2013-08-14 04:11:00,
2013-08-14 00:16:00,68.7,65.3,0.00,West,270,0.0,0.0,89,0.00,,,0.00,WUHU216HW,2013-08-14 04:16:00,
2013-08-14 00:21:00,68.5,65.1,0.00,West,270,0.0,0.0,89,0.00,,,0.00,WUHU216HW,2013-08-14 04:21:00,
2013-08-14 00:26:00,68.5,65.1,0.00,West,270,0.0,0.0,89,0.00,,,0.00,WUHU216HW,2013-08-14 04:26:00,
2013-08-14 00:31:00,68.5,65.1,0.00,West,270,0.0,0.0,89,0.00,,,0.00,WUHU216HW,2013-08-14 04:31:00,
2013-08-14 00:36:00,68.5,65.1,0.00,West,270,0.0,0.0,89,0.00,,,0.00,WUHU216HW,2013-08-14 04:36:00,
2013-08-14 00:41:00,68.5,65.1,0.00,West,270,0.0,0.0,89,0.00,,,0.00,WUHU216HW,2013-08-14 04:41:00,
2013-08-14 00:46:00,68.3,64.9,0.00,West,270,0.0,0.0,89,0.00,,,0.00,WUHU216HW,2013-08-14 04:46:00,
2013-08-14 00:51:00,68.1,64.7,0.00,West,270,0.0,0.0,89,0.00,,,0.00,WUHU216HW,2013-08-14 04:51:00,
2013-08-14 00:56:00,68.1,64.7,0.00,West,270,0.0,0.0,89,0.00,,,0.00,WUHU216HW,2013-08-14 04:56:00,
2013-08-14 01:01:00,68.1,64.7,0.00,West,270,0.0,0.0,89,0.00,,,0.00,WUHU216HW,2013-08-14 05:01:00,
2013-08-14 01:06:00,68.1,64.7,0.00,WNW,293,0.0,0.0,89,0.00,,,0.00,WUHU216HW,2013-08-14 05:06:00,
2013-08-14 01:11:00,68.1,64.7,0.00,WNW,293,0.0,0.0,89,0.00,,,0.00,WUHU216HW,2013-08-14 05:11:00,
2013-08-14 01:16:00,68.1,64.7,0.00,WNW,293,0.0,0.0,89,0.00,,,0.00,WUHU216HW,2013-08-14 05:16:00,
2013-08-14 01:21:00,68.1,65.1,0.00,WNW,293,0.0,0.0,90,0.00,,,0.00,WUHU216HW,2013-08-14 05:21:00,
2013-08-14 01:26:00,68.1,65.1,0.00,WNW,293,0.0,0.0,90,0.00,,,0.00,WUHU216HW,2013-08-14 05:26:00,
2013-08-14 01:31:00,68.1,65.1,0.00,WNW,293,0.0,0.0,90,0.00,,,0.00,WUHU216HW,2013-08-14 05:31:00,
2013-08-14 01:36:00,68.1,65.1,0.00,WNW,293,0.0,0.0,90,0.00,,,0.00,WUHU216HW,2013-08-14 05:36:00,
2013-08-14 01:41:00,68.1,65.1,0.00,WNW,293,0.0,0.0,90,0.00,,,0.00,WUHU216HW,2013-08-14 05:41:00,
2013-08-14 01:46:00,68.1,65.1,0.00,WNW,293,0.0,0.0,90,0.00,,,0.00,WUHU216HW,2013-08-14 05:46:00,
2013-08-14 01:51:00,68.1,65.1,0.00,WNW,293,0.0,0.0,90,0.00,,,0.00,WUHU216HW,2013-08-14 05:51:00,
2013-08-14 01:56:00,68.1,65.1,0.00,WNW,293,0.0,0.0,90,0.00,,,0.00,WUHU216HW,2013-08-14 05:56:00,
2013-08-14 02:01:00,68.1,65.1,0.00,WNW,293,0.0,0.0,90,0.00,,,0.00,WUHU216HW,2013-08-14 06:01:00,
2013-08-14 02:06:00,68.1,65.1,0.00,WNW,293,0.0,21.9,90,0.00,,,0.00,WUHU216HW,2013-08-14 06:06:00,
2013-08-14 02:11:00,68.1,65.1,0.00,WNW,293,0.0,21.9,90,0.00,,,0.00,WUHU216HW,2013-08-14 06:11:00,
2013-08-14 02:16:00,68.1,65.1,0.00,WNW,293,0.0,0.0,90,0.00,,,0.00,WUHU216HW,2013-08-14 06:16:00,
2013-08-14 02:21:00,68.1,65.1,0.00,WNW,293,0.0,0.0,90,0.00,,,0.00,WUHU216HW,2013-08-14 06:21:00,
2013-08-14 02:26:00,67.8,64.7,0.00,South,180,0.0,0.0,90,0.00,,,0.00,WUHU216HW,2013-08-14 06:26:00,
2013-08-14 02:31:00,67.8,64.7,0.00,South,180,0.0,0.0,90,0.00,,,0.00,WUHU216HW,2013-08-14 06:31:00,
2013-08-14 02:36:00,67.8,64.7,0.00,South,180,0.0,0.0,90,0.00,,,0.00,WUHU216HW,2013-08-14 06:36:00,
2013-08-14 02:41:00,67.8,64.7,0.00,South,180,0.0,0.0,90,0.00,,,0.00,WUHU216HW,2013-08-14 06:41:00,
2013-08-14 02:46:00,67.6,64.5,0.00,South,180,0.0,0.0,90,0.00,,,0.00,WUHU216HW,2013-08-14 06:46:00,
2013-08-14 02:51:00,67.6,64.5,0.00,South,180,0.0,0.0,90,0.00,,,0.00,WUHU216HW,2013-08-14 06:51:00,
2013-08-14 02:56:00,67.6,64.5,0.00,South,180,0.0,0.0,90,0.00,,,0.00,WUHU216HW,2013-08-14 06:56:00,
2013-08-14 03:01:00,67.6,64.5,0.00,South,180,0.0,0.0,90,0.00,,,0.00,WUHU216HW,2013-08-14 07:01:00,
2013-08-14 03:06:00,67.6,64.5,0.00,South,180,0.0,0.0,90,0.00,,,0.00,WUHU216HW,2013-08-14 07:06:00,
2013-08-14 03:11:00,67.2,64.2,0.00,South,180,0.0,0.0,90,0.00,,,0.00,WUHU216HW,2013-08-14 07:11:00,
2013-08-14 03:16:00,67.2,64.2,0.00,NW,315,0.0,0.0,90,0.00,,,0.00,WUHU216HW,2013-08-14 07:16:00,
2013-08-14 03:21:00,67.2,64.2,0.00,NW,315,0.0,0.0,90,0.00,,,0.00,WUHU216HW,2013-08-14 07:21:00,
2013-08-14 03:26:00,67.1,64.0,0.00,NW,315,0.0,0.0,90,0.00,,,0.00,WUHU216HW,2013-08-14 07:26:00,
2013-08-14 03:31:00,67.1,64.0,0.00,NW,315,0.0,0.0,90,0.00,,,0.00,WUHU216HW,2013-08-14 07:31:00,
2013-08-14 03:36:00,66.9,63.8,0.00,NW,315,0.0,0.0,89,0.00,,,0.00,WUHU216HW,2013-08-14 07:36:00,
2013-08-14 03:41:00,66.9,63.8,0.00,NW,315,0.0,0.0,89,0.00,,,0.00,WUHU216HW,2013-08-14 07:41:00,
2013-08-14 03:46:00,66.9,63.5,0.00,NW,315,0.0,0.0,89,0.00,,,0.00,WUHU216HW,2013-08-14 07:46:00,
2013-08-14 03:51:00,66.7,63.6,0.00,NW,315,0.0,0.0,90,0.00,,,0.00,WUHU216HW,2013-08-14 07:51:00,
2013-08-14 03:56:00,66.5,63.5,0.00,NW,315,0.0,0.0,90,0.00,,,0.00,WUHU216HW,2013-08-14 07:56:00,
2013-08-14 04:01:00,66.3,63.3,0.00,NW,315,0.0,0.0,90,0.00,,,0.00,WUHU216HW,2013-08-14 08:01:00,
2013-08-14 04:06:00,66.3,63.3,0.00,NW,315,0.0,0.0,90,0.00,,,0.00,WUHU216HW,2013-08-14 08:06:00,
2013-08-14 04:11:00,66.0,62.9,0.00,NW,315,0.0,0.0,90,0.00,,,0.00,WUHU216HW,2013-08-14 08:11:00,
2013-08-14 04:16:00,66.0,62.9,0.00,NW,315,0.0,0.0,90,0.00,,,0.00,WUHU216HW,2013-08-14 08:16:00,
2013-08-14 04:21:00,65.8,62.8,0.00,NW,315,0.0,0.0,90,0.00,,,0.00,WUHU216HW,2013-08-14 08:21:00,
2013-08-14 04:26:00,65.8,62.8,0.00,NW,315,0.0,0.0,90,0.00,,,0.00,WUHU216HW,2013-08-14 08:26:00,
2013-08-14 04:31:00,65.6,62.6,0.00,NW,315,0.0,0.0,90,0.00,,,0.00,WUHU216HW,2013-08-14 08:31:00,
2013-08-14 04:36:00,65.6,62.6,0.00,NW,315,0.0,0.0,90,0.00,,,0.00,WUHU216HW,2013-08-14 08:36:00,
2013-08-14 04:41:00,65.6,62.6,0.00,NW,315,0.0,0.0,90,0.00,,,0.00,WUHU216HW,2013-08-14 08:41:00,
2013-08-14 04:46:00,65.4,62.4,0.00,NW,315,0.0,0.0,90,0.00,,,0.00,WUHU216HW,2013-08-14 08:46:00,
2013-08-14 04:51:00,65.4,62.4,0.00,NW,315,0.0,0.0,90,0.00,,,0.00,WUHU216HW,2013-08-14 08:51:00,
2013-08-14 04:56:00,65.4,62.4,0.00,NW,315,0.0,0.0,90,0.00,,,0.00,WUHU216HW,2013-08-14 08:56:00,
2013-08-14 05:01:00,65.3,62.3,0.00,NW,315,0.0,0.0,90,0.00,,,0.00,WUHU216HW,2013-08-14 09:01:00,
2013-08-14 05:06:00,65.3,62.3,0.00,NW,315,0.0,0.0,90,0.00,,,0.00,WUHU216HW,2013-08-14 09:06:00,
2013-08-14 05:11:00,65.1,62.1,0.00,NW,315,0.0,0.0,90,0.00,,,0.00,WUHU216HW,2013-08-14 09:11:00,
2013-08-14 05:16:00,65.1,62.1,0.00,NW,315,0.0,0.0,90,0.00,,,0.00,WUHU216HW,2013-08-14 09:16:00,
2013-08-14 05:21:00,65.1,62.1,0.00,NW,315,0.0,0.0,90,0.00,,,0.00,WUHU216HW,2013-08-14 09:21:00,
2013-08-14 05:26:00,65.1,62.1,0.00,NW,315,0.0,0.0,90,0.00,,,0.00,WUHU216HW,2013-08-14 09:26:00,
2013-08-14 05:31:00,65.1,62.1,0.00,NW,315,0.0,0.0,90,0.00,,,0.00,WUHU216HW,2013-08-14 09:31:00,
2013-08-14 05:36:00,64.9,62.0,0.00,NW,315,0.0,0.0,90,0.00,,,0.00,WUHU216HW,2013-08-14 09:36:00,
2013-08-14 05:41:00,64.9,62.0,0.00,NW,315,0.0,0.0,90,0.00,,,0.00,WUHU216HW,2013-08-14 09:41:00,
2013-08-14 05:46:00,64.7,61.8,0.00,NW,315,0.0,0.0,90,0.00,,,0.00,WUHU216HW,2013-08-14 09:46:00,
2013-08-14 05:51:00,64.7,61.8,0.00,NW,315,0.0,0.0,90,0.00,,,0.00,WUHU216HW,2013-08-14 09:51:00,
2013-08-14 05:56:00,64.5,61.6,0.00,NW,315,0.0,0.0,90,0.00,,,0.00,WUHU216HW,2013-08-14 09:56:00,
2013-08-14 06:01:00,64.5,61.6,0.00,NW,315,0.0,0.0,90,0.00,,,0.00,WUHU216HW,2013-08-14 10:01:00,
2013-08-14 06:06:00,64.5,61.6,0.00,NW,315,0.0,0.0,90,0.00,,,0.00,WUHU216HW,2013-08-14 10:06:00,
2013-08-14 06:11:00,64.4,61.5,0.00,NW,315,0.0,0.0,90,0.00,,,0.00,WUHU216HW,2013-08-14 10:11:00,
2013-08-14 06:16:00,64.2,61.3,0.00,NW,315,0.0,0.0,90,0.00,,,0.00,WUHU216HW,2013-08-14 10:16:00,
2013-08-14 06:21:00,64.2,61.3,0.00,NW,315,0.0,0.0,90,0.00,,,0.00,WUHU216HW,2013-08-14 10:21:00,
2013-08-14 06:26:00,64.2,61.3,0.00,NW,315,0.0,0.0,90,0.00,,,0.00,WUHU216HW,2013-08-14 10:26:00,
2013-08-14 06:31:00,64.2,61.3,0.00,NW,315,0.0,0.0,90,0.00,,,0.00,WUHU216HW,2013-08-14 10:31:00,
2013-08-14 06:36:00,64.2,61.3,0.00,NW,315,0.0,0.0,90,0.00,,,0.00,WUHU216HW,2013-08-14 10:36:00,
2013-08-14 06:41:00,64.2,61.3,0.00,NW,315,0.0,0.0,90,0.00,,,0.00,WUHU216HW,2013-08-14 10:41:00,
2013-08-14 06:46:00,64.0,61.1,0.00,NW,315,0.0,0.0,90,0.00,,,0.00,WUHU216HW,2013-08-14 10:46:00,
2013-08-14 06:51:00,64.0,61.1,0.00,NW,315,0.0,0.0,90,0.00,,,0.00,WUHU216HW,2013-08-14 10:51:00,
2013-08-14 06:56:00,64.0,61.1,0.00,NW,315,0.0,0.0,90,0.00,,,0.00,WUHU216HW,2013-08-14 10:56:00,
2013-08-14 07:01:00,63.8,60.9,0.00,NW,315,0.0,0.0,90,0.00,,,0.00,WUHU216HW,2013-08-14 11:01:00,
2013-08-14 07:06:00,63.6,60.8,0.00,NW,315,0.0,0.0,90,0.00,,,0.00,WUHU216HW,2013-08-14 11:06:00,
2013-08-14 07:11:00,63.6,60.8,0.00,NW,315,0.0,0.0,90,0.00,,,0.00,WUHU216HW,2013-08-14 11:11:00,
2013-08-14 07:16:00,63.6,60.8,0.00,NW,315,0.0,0.0,90,0.00,,,0.00,WUHU216HW,2013-08-14 11:16:00,
2013-08-14 07:21:00,63.6,60.8,0.00,NW,315,0.0,0.0,90,0.00,,,0.00,WUHU216HW,2013-08-14 11:21:00,
2013-08-14 07:26:00,63.6,60.8,0.00,NW,315,0.0,0.0,90,0.00,,,0.00,WUHU216HW,2013-08-14 11:26:00,
2013-08-14 07:31:00,63.6,60.8,0.00,NW,315,0.0,0.0,90,0.00,,,0.00,WUHU216HW,2013-08-14 11:31:00,
2013-08-14 07:36:00,63.6,60.8,0.00,NW,315,0.0,0.0,90,0.00,,,0.00,WUHU216HW,2013-08-14 11:36:00,
2013-08-14 07:41:00,63.6,60.8,0.00,NW,315,0.0,0.0,90,0.00,,,0.00,WUHU216HW,2013-08-14 11:41:00,
2013-08-14 07:46:00,63.6,60.8,0.00,SSE,158,0.0,0.0,90,0.00,,,0.00,WUHU216HW,2013-08-14 11:46:00,
2013-08-14 07:51:00,63.6,60.8,0.00,SSE,158,0.0,0.0,90,0.00,,,0.00,WUHU216HW,2013-08-14 11:51:00,
2013-08-14 07:56:00,63.6,60.8,0.00,SE,135,0.0,0.0,90,0.00,,,0.00,WUHU216HW,2013-08-14 11:56:00,
2013-08-14 08:01:00,63.6,60.8,0.00,SE,135,0.0,0.0,90,0.00,,,0.00,WUHU216HW,2013-08-14 12:01:00,
2013-08-14 08:06:00,63.6,60.8,0.00,SE,135,0.0,0.0,90,0.00,,,0.00,WUHU216HW,2013-08-14 12:06:00,
2013-08-14 08:12:00,63.6,60.8,0.00,SSE,158,0.0,0.0,90,0.00,,,0.00,WUHU216HW,2013-08-14 12:12:00,
2013-08-14 08:17:00,63.8,60.9,0.00,SSE,158,0.0,0.0,90,0.00,,,0.00,WUHU216HW,2013-08-14 12:17:00,
2013-08-14 08:22:00,64.0,61.1,0.00,West,270,0.0,0.0,90,0.00,,,0.00,WUHU216HW,2013-08-14 12:22:00,
2013-08-14 08:27:00,64.0,61.1,0.00,NW,315,0.0,0.0,90,0.00,,,0.00,WUHU216HW,2013-08-14 12:27:00,
2013-08-14 08:32:00,64.0,61.1,0.00,WNW,293,0.0,0.0,90,0.00,,,0.00,WUHU216HW,2013-08-14 12:32:00,
2013-08-14 08:37:00,64.0,61.1,0.00,WNW,293,0.0,0.0,90,0.00,,,0.00,WUHU216HW,2013-08-14 12:37:00,
2013-08-14 08:42:00,64.2,61.3,0.00,WNW,293,0.0,0.0,90,0.00,,,0.00,WUHU216HW,2013-08-14 12:42:00,
2013-08-14 08:47:00,64.2,61.3,0.00,West,270,0.0,0.0,90,0.00,,,0.00,WUHU216HW,2013-08-14 12:47:00,
2013-08-14 08:51:00,64.4,61.5,0.00,West,270,0.0,0.0,90,0.00,,,0.00,WUHU216HW,2013-08-14 12:51:00,
2013-08-14 08:57:00,64.5,61.6,0.00,West,270,0.0,0.0,90,0.00,,,0.00,WUHU216HW,2013-08-14 12:57:00,
2013-08-14 09:01:00,64.7,61.8,0.00,West,270,0.0,0.0,90,0.00,,,0.00,WUHU216HW,2013-08-14 13:01:00,
2013-08-14 09:06:00,64.9,62.0,0.00,West,270,0.0,0.0,90,0.00,,,0.00,WUHU216HW,2013-08-14 13:06:00,
2013-08-14 09:11:00,65.1,62.1,0.00,NW,315,0.0,0.0,90,0.00,,,0.00,WUHU216HW,2013-08-14 13:11:00,
2013-08-14 09:16:00,65.3,62.1,0.00,NW,315,0.0,0.0,90,0.00,,,0.00,WUHU216HW,2013-08-14 13:16:00,
2013-08-14 09:21:00,65.4,62.4,0.00,NW,315,0.0,0.0,90,0.00,,,0.00,WUHU216HW,2013-08-14 13:21:00,
2013-08-14 09:26:00,65.8,62.8,0.00,NW,315,0.0,0.0,90,0.00,,,0.00,WUHU216HW,2013-08-14 13:26:00,
2013-08-14 09:31:00,66.0,62.9,0.00,NW,315,0.0,0.0,90,0.00,,,0.00,WUHU216HW,2013-08-14 13:31:00,
2013-08-14 09:36:00,66.3,62.9,0.00,NW,315,0.0,0.0,89,0.00,,,0.00,WUHU216HW,2013-08-14 13:36:00,
2013-08-14 09:41:00,66.3,62.9,0.00,NW,315,0.0,0.0,89,0.00,,,0.00,WUHU216HW,2013-08-14 13:41:00,
2013-08-14 09:46:00,66.7,63.0,0.00,NW,315,0.0,0.0,88,0.00,,,0.00,WUHU216HW,2013-08-14 13:46:00,
2013-08-14 09:51:00,66.9,63.2,0.00,NW,315,0.0,0.0,88,0.00,,,0.00,WUHU216HW,2013-08-14 13:51:00,
2013-08-14 09:56:00,67.1,63.3,0.00,NW,315,0.0,0.0,88,0.00,,,0.00,WUHU216HW,2013-08-14 13:56:00,
2013-08-14 10:01:00,67.6,63.2,0.00,NW,315,0.0,0.0,87,0.00,,,0.00,WUHU216HW,2013-08-14 14:01:00,
2013-08-14 10:06:00,67.8,63.4,0.00,WNW,293,0.0,0.0,86,0.00,,,0.00,WUHU216HW,2013-08-14 14:06:00,
2013-08-14 10:11:00,67.8,63.4,0.00,WNW,293,0.0,0.0,86,0.00,,,0.00,WUHU216HW,2013-08-14 14:11:00,
2013-08-14 10:16:00,68.1,63.4,0.00,NW,315,0.0,0.0,85,0.00,,,0.00,WUHU216HW,2013-08-14 14:16:00,
2013-08-14 10:21:00,68.1,63.4,0.00,NW,315,0.0,0.0,85,0.00,,,0.00,WUHU216HW,2013-08-14 14:21:00,
2013-08-14 10:26:00,68.1,63.4,0.00,NW,315,0.0,0.0,85,0.00,,,0.00,WUHU216HW,2013-08-14 14:26:00,
2013-08-14 10:31:00,68.1,63.1,0.00,NW,315,0.0,0.0,84,0.00,,,0.00,WUHU216HW,2013-08-14 14:31:00,
2013-08-14 10:36:00,68.1,63.1,0.00,NW,315,0.0,0.0,84,0.00,,,0.00,WUHU216HW,2013-08-14 14:36:00,
2013-08-14 10:41:00,68.3,63.3,0.00,East,90,0.0,0.0,84,0.00,,,0.00,WUHU216HW,2013-08-14 14:41:00,
2013-08-14 10:46:00,68.5,63.5,0.00,NW,315,0.0,0.0,84,0.00,,,0.00,WUHU216HW,2013-08-14 14:46:00,
2013-08-14 10:51:00,68.9,63.8,0.00,NW,315,2.9,2.9,84,0.00,,,0.00,WUHU216HW,2013-08-14 14:51:00,
2013-08-14 10:56:00,69.0,63.3,0.00,NW,315,0.0,2.9,82,0.00,,,0.00,WUHU216HW,2013-08-14 14:56:00,
2013-08-14 11:01:00,69.0,63.3,0.00,NW,315,0.0,0.0,82,0.00,,,0.00,WUHU216HW,2013-08-14 15:01:00,
2013-08-14 11:06:00,69.4,64.0,0.00,NW,315,0.0,0.0,83,0.00,,,0.00,WUHU216HW,2013-08-14 15:06:00,
2013-08-14 11:11:00,69.6,63.8,0.00,NW,315,0.0,0.0,82,0.00,,,0.00,WUHU216HW,2013-08-14 15:11:00,
2013-08-14 11:16:00,70.1,64.3,0.00,SSE,158,0.0,0.0,82,0.00,,,0.00,WUHU216HW,2013-08-14 15:16:00,
2013-08-14 11:21:00,70.3,64.2,0.00,SE,135,0.0,0.0,81,0.00,,,0.00,WUHU216HW,2013-08-14 15:21:00,
2013-08-14 11:26:00,70.3,64.2,0.00,NW,315,0.0,0.0,81,0.00,,,0.00,WUHU216HW,2013-08-14 15:26:00,
2013-08-14 11:31:00,70.5,64.0,0.00,SE,135,0.0,0.0,80,0.00,,,0.00,WUHU216HW,2013-08-14 15:31:00,
2013-08-14 11:36:00,70.5,64.0,0.00,WNW,293,0.0,0.0,80,0.00,,,0.00,WUHU216HW,2013-08-14 15:36:00,
2013-08-14 11:41:00,70.5,63.8,0.00,SSE,158,0.0,0.0,80,0.00,,,0.00,WUHU216HW,2013-08-14 15:41:00,
2013-08-14 11:46:00,70.3,63.8,0.00,South,180,0.0,0.0,80,0.00,,,0.00,WUHU216HW,2013-08-14 15:46:00,
2013-08-14 11:51:00,70.3,63.8,0.00,South,180,0.0,0.0,80,0.00,,,0.00,WUHU216HW,2013-08-14 15:51:00,
2013-08-14 11:56:00,70.3,63.8,0.00,NW,315,0.0,0.0,79,0.00,,,0.00,WUHU216HW,2013-08-14 15:56:00,
2013-08-14 12:01:00,70.3,63.4,0.00,WNW,293,0.0,0.0,79,0.00,,,0.00,WUHU216HW,2013-08-14 16:01:00,
2013-08-14 12:06:00,70.3,63.1,0.00,SSE,158,0.0,0.0,79,0.00,,,0.00,WUHU216HW,2013-08-14 16:06:00,
2013-08-14 12:11:00,70.5,63.2,0.00,WNW,293,0.0,3.8,78,0.00,,,0.00,WUHU216HW,2013-08-14 16:11:00,
2013-08-14 12:16:00,70.5,63.2,0.00,WNW,293,0.0,3.8,78,0.00,,,0.00,WUHU216HW,2013-08-14 16:16:00,
2013-08-14 12:22:00,70.7,63.4,0.00,WNW,293,0.0,1.3,78,0.00,,,0.00,WUHU216HW,2013-08-14 16:22:00,
2013-08-14 12:27:00,70.5,62.9,0.00,SE,135,0.4,1.3,77,0.00,,,0.00,WUHU216HW,2013-08-14 16:27:00,
2013-08-14 12:32:00,70.5,62.9,0.00,WNW,293,0.0,0.4,77,0.00,,,0.00,WUHU216HW,2013-08-14 16:32:00,
2013-08-14 12:37:00,70.5,62.9,0.00,NW,315,0.0,0.0,77,0.00,,,0.00,WUHU216HW,2013-08-14 16:37:00,
2013-08-14 12:41:00,70.5,62.9,0.00,NNW,338,0.0,0.0,77,0.00,,,0.00,WUHU216HW,2013-08-14 16:41:00,
2013-08-14 12:47:00,70.8,63.2,0.00,NW,315,0.0,0.0,77,0.00,,,0.00,WUHU216HW,2013-08-14 16:47:00,
2013-08-14 12:52:00,71.2,63.2,0.00,WNW,293,0.0,0.0,76,0.00,,,0.00,WUHU216HW,2013-08-14 16:52:00,
2013-08-14 12:57:00,71.4,63.4,0.00,WNW,293,0.0,0.0,76,0.00,,,0.00,WUHU216HW,2013-08-14 16:57:00,
2013-08-14 13:02:00,71.7,63.7,0.00,SSW,203,0.0,0.0,76,0.00,,,0.00,WUHU216HW,2013-08-14 17:02:00,
2013-08-14 13:07:00,71.7,63.9,0.00,WNW,293,0.0,1.5,76,0.00,,,0.00,WUHU216HW,2013-08-14 17:07:00,
2013-08-14 13:12:00,71.7,63.4,0.00,WNW,293,0.0,1.5,75,0.00,,,0.00,WUHU216HW,2013-08-14 17:12:00,
2013-08-14 13:17:00,71.7,63.0,0.00,NW,315,0.0,0.0,74,0.00,,,0.00,WUHU216HW,2013-08-14 17:17:00,
2013-08-14 13:22:00,71.4,63.0,0.00,SSW,203,0.0,0.0,75,0.00,,,0.00,WUHU216HW,2013-08-14 17:22:00,
2013-08-14 13:27:00,71.4,63.0,0.00,SW,225,0.0,0.0,75,0.00,,,0.00,WUHU216HW,2013-08-14 17:27:00,
2013-08-14 13:32:00,71.6,63.2,0.00,West,270,0.0,0.0,75,0.00,,,0.00,WUHU216HW,2013-08-14 17:32:00,
2013-08-14 13:38:00,71.7,63.0,0.00,SSE,158,0.0,0.0,74,0.00,,,0.00,WUHU216HW,2013-08-14 17:38:00,
2013-08-14 13:43:00,72.3,63.5,0.00,South,180,0.0,0.0,74,0.00,,,0.00,WUHU216HW,2013-08-14 17:43:00,
2013-08-14 13:48:00,72.5,63.3,0.00,SSW,203,0.0,0.0,73,0.00,,,0.00,WUHU216HW,2013-08-14 17:48:00,
2013-08-14 13:53:00,72.5,63.7,0.00,NW,315,0.0,0.0,74,0.00,,,0.00,WUHU216HW,2013-08-14 17:53:00,
2013-08-14 13:58:00,72.6,63.9,0.00,NW,315,0.0,0.0,74,0.00,,,0.00,WUHU216HW,2013-08-14 17:58:00,
2013-08-14 14:04:00,72.6,63.1,0.00,West,270,0.0,0.0,72,0.00,,,0.00,WUHU216HW,2013-08-14 18:04:00,
2013-08-14 14:09:00,72.6,63.1,0.00,NW,315,0.0,0.0,72,0.00,,,0.00,WUHU216HW,2013-08-14 18:09:00,
2013-08-14 14:14:00,72.5,62.6,0.00,NW,315,0.0,0.0,71,0.00,,,0.00,WUHU216HW,2013-08-14 18:14:00,
2013-08-14 14:19:00,72.6,62.7,0.00,SSE,158,0.0,0.0,71,0.00,,,0.00,WUHU216HW,2013-08-14 18:19:00,
2013-08-14 14:25:00,72.8,62.9,0.00,WNW,293,0.0,0.0,71,0.00,,,0.00,WUHU216HW,2013-08-14 18:25:00,
2013-08-14 14:30:00,72.6,62.4,0.00,WNW,293,0.0,0.0,70,0.00,,,0.00,WUHU216HW,2013-08-14 18:30:00,
2013-08-14 14:36:00,73.0,62.6,0.00,WNW,293,0.0,0.0,70,0.00,,,0.00,WUHU216HW,2013-08-14 18:36:00,
2013-08-14 14:41:00,73.2,62.9,0.00,WNW,293,0.0,2.6,70,0.00,,,0.00,WUHU216HW,2013-08-14 18:41:00,
2013-08-14 14:46:00,73.2,62.9,0.00,WSW,248,0.0,2.6,70,0.00,,,0.00,WUHU216HW,2013-08-14 18:46:00,
2013-08-14 14:51:00,73.0,61.8,0.00,WNW,293,0.0,0.0,68,0.00,,,0.00,WUHU216HW,2013-08-14 18:51:00,
2013-08-14 14:56:00,73.0,61.8,0.00,WNW,293,0.0,0.0,68,0.00,,,0.00,WUHU216HW,2013-08-14 18:56:00,
2013-08-14 15:02:00,73.0,61.8,0.00,NW,315,0.0,0.0,68,0.00,,,0.00,WUHU216HW,2013-08-14 19:02:00,
2013-08-14 15:07:00,73.2,62.5,0.00,West,270,0.0,0.0,69,0.00,,,0.00,WUHU216HW,2013-08-14 19:07:00,
2013-08-14 15:12:00,73.2,62.0,0.00,South,180,0.0,0.0,68,0.00,,,0.00,WUHU216HW,2013-08-14 19:12:00,
2013-08-14 15:17:00,73.2,61.6,0.00,NW,315,0.0,0.0,67,0.00,,,0.00,WUHU216HW,2013-08-14 19:17:00,
2013-08-14 15:23:00,73.2,61.6,0.00,West,270,0.0,0.0,67,0.00,,,0.00,WUHU216HW,2013-08-14 19:23:00,
2013-08-14 15:29:00,73.4,61.7,0.00,North,0,0.0,0.0,67,0.00,,,0.00,WUHU216HW,2013-08-14 19:29:00,
2013-08-14 15:34:00,73.5,61.0,0.00,SW,225,0.0,0.0,66,0.00,,,0.00,WUHU216HW,2013-08-14 19:34:00,
2013-08-14 15:39:00,73.4,61.3,0.00,South,180,0.0,0.0,66,0.00,,,0.00,WUHU216HW,2013-08-14 19:39:00,
2013-08-14 15:44:00,73.2,61.1,0.00,WNW,293,0.0,0.0,66,0.00,,,0.00,WUHU216HW,2013-08-14 19:44:00,
2013-08-14 15:49:00,73.0,60.9,0.00,NW,315,0.0,0.0,66,0.00,,,0.00,WUHU216HW,2013-08-14 19:49:00,
2013-08-14 15:54:00,72.8,60.8,0.00,WNW,293,0.0,0.0,66,0.00,,,0.00,WUHU216HW,2013-08-14 19:54:00,
2013-08-14 15:59:00,72.6,61.0,0.00,SW,225,0.0,0.0,67,0.00,,,0.00,WUHU216HW,2013-08-14 19:59:00,
2013-08-14 16:04:00,72.5,60.4,0.00,WNW,293,0.0,0.0,66,0.00,,,0.00,WUHU216HW,2013-08-14 20:04:00,
2013-08-14 16:09:00,72.3,60.2,0.00,WNW,293,0.0,0.0,66,0.00,,,0.00,WUHU216HW,2013-08-14 20:09:00,
2013-08-14 16:14:00,72.3,60.7,0.00,WNW,293,0.0,0.0,67,0.00,,,0.00,WUHU216HW,2013-08-14 20:14:00,
2013-08-14 16:21:00,72.1,60.1,0.00,SSW,203,0.0,0.0,66,0.00,,,0.00,WUHU216HW,2013-08-14 20:21:00,
2013-08-14 16:26:00,71.9,60.3,0.00,SW,225,0.0,0.0,67,0.00,,,0.00,WUHU216HW,2013-08-14 20:26:00,
2013-08-14 16:32:00,71.9,60.8,0.00,WSW,248,0.0,0.0,68,0.00,,,0.00,WUHU216HW,2013-08-14 20:32:00,
2013-08-14 16:37:00,71.9,60.8,0.00,WSW,248,0.0,0.0,68,0.00,,,0.00,WUHU216HW,2013-08-14 20:37:00,
2013-08-14 16:43:00,72.1,61.4,0.00,SW,225,0.0,0.0,69,0.00,,,0.00,WUHU216HW,2013-08-14 20:43:00,
2013-08-14 16:48:00,72.1,61.4,0.00,West,270,0.0,3.1,69,0.00,,,0.00,WUHU216HW,2013-08-14 20:48:00,
2013-08-14 16:53:00,72.3,61.6,0.00,SW,225,0.0,3.1,69,0.00,,,0.00,WUHU216HW,2013-08-14 20:53:00,
2013-08-14 16:58:00,72.3,61.6,0.00,WSW,248,0.0,0.0,70,0.00,,,0.00,WUHU216HW,2013-08-14 20:58:00,
2013-08-14 17:03:00,72.5,61.9,0.00,WNW,293,0.0,0.0,69,0.00,,,0.00,WUHU216HW,2013-08-14 21:03:00,
2013-08-14 17:08:00,72.3,61.6,0.00,WNW,293,0.0,0.0,69,0.00,,,0.00,WUHU216HW,2013-08-14 21:08:00,
2013-08-14 17:13:00,72.1,61.4,0.00,NW,315,0.0,0.0,69,0.00,,,0.00,WUHU216HW,2013-08-14 21:13:00,
2013-08-14 17:18:00,71.7,60.6,0.00,WNW,293,0.0,0.0,68,0.00,,,0.00,WUHU216HW,2013-08-14 21:18:00,
2013-08-14 17:23:00,71.7,60.6,0.00,NW,315,0.0,0.0,68,0.00,,,0.00,WUHU216HW,2013-08-14 21:23:00,
2013-08-14 17:28:00,71.7,61.0,0.00,WNW,293,0.0,0.0,69,0.00,,,0.00,WUHU216HW,2013-08-14 21:28:00,
2013-08-14 17:33:00,71.7,61.0,0.00,WNW,293,0.0,0.0,69,0.00,,,0.00,WUHU216HW,2013-08-14 21:33:00,
2013-08-14 17:38:00,71.4,60.7,0.00,NW,315,0.0,0.0,69,0.00,,,0.00,WUHU216HW,2013-08-14 21:38:00,
2013-08-14 17:43:00,71.2,60.5,0.00,NW,315,0.0,0.0,69,0.00,,,0.00,WUHU216HW,2013-08-14 21:43:00,
2013-08-14 17:49:00,71.2,60.5,0.00,West,270,0.0,0.0,69,0.00,,,0.00,WUHU216HW,2013-08-14 21:49:00,
2013-08-14 17:54:00,71.2,60.5,0.00,West,270,0.0,0.0,69,0.00,,,0.00,WUHU216HW,2013-08-14 21:54:00,
2013-08-14 17:59:00,70.8,60.6,0.00,West,270,0.0,0.0,70,0.00,,,0.00,WUHU216HW,2013-08-14 21:59:00,
2013-08-14 18:04:00,70.8,60.6,0.00,West,270,0.0,0.0,70,0.00,,,0.00,WUHU216HW,2013-08-14 22:04:00,
2013-08-14 18:09:00,70.8,60.6,0.00,West,270,0.0,0.0,70,0.00,,,0.00,WUHU216HW,2013-08-14 22:09:00,
2013-08-14 18:14:00,70.8,60.9,0.00,WNW,293,0.0,0.0,71,0.00,,,0.00,WUHU216HW,2013-08-14 22:14:00,
2013-08-14 18:19:00,70.8,60.6,0.00,WNW,293,0.0,0.0,70,0.00,,,0.00,WUHU216HW,2013-08-14 22:19:00,
2013-08-14 18:24:00,70.8,60.1,0.00,NW,315,0.0,2.2,69,0.00,,,0.00,WUHU216HW,2013-08-14 22:24:00,
2013-08-14 18:29:00,70.8,60.1,0.00,WNW,293,0.0,2.2,69,0.00,,,0.00,WUHU216HW,2013-08-14 22:29:00,
2013-08-14 18:35:00,70.8,60.1,0.00,WSW,248,0.0,0.0,69,0.00,,,0.00,WUHU216HW,2013-08-14 22:35:00,
2013-08-14 18:40:00,70.7,60.0,0.00,West,270,0.0,0.0,69,0.00,,,0.00,WUHU216HW,2013-08-14 22:40:00,
2013-08-14 18:45:00,70.5,60.2,0.00,West,270,0.0,0.0,70,0.00,,,0.00,WUHU216HW,2013-08-14 22:45:00,
2013-08-14 18:50:00,70.3,60.0,0.00,WNW,293,0.0,0.0,70,0.00,,,0.00,WUHU216HW,2013-08-14 22:50:00,
2013-08-14 18:55:00,70.3,60.4,0.00,WNW,293,0.0,0.0,71,0.00,,,0.00,WUHU216HW,2013-08-14 22:55:00,
2013-08-14 19:00:00,70.3,60.4,0.00,WSW,248,0.0,0.0,70,0.00,,,0.00,WUHU216HW,2013-08-14 23:00:00,
2013-08-14 19:05:00,70.3,60.0,0.00,NW,315,0.0,0.0,70,0.00,,,0.00,WUHU216HW,2013-08-14 23:05:00,
2013-08-14 19:10:00,70.3,59.6,0.00,NW,315,0.0,0.0,69,0.00,,,0.00,WUHU216HW,2013-08-14 23:10:00,
2013-08-14 19:16:00,70.1,59.9,0.00,NW,315,0.0,0.0,70,0.00,,,0.00,WUHU216HW,2013-08-14 23:16:00,
2013-08-14 19:21:00,69.9,59.7,0.00,NW,315,0.0,0.0,70,0.00,,,0.00,WUHU216HW,2013-08-14 23:21:00,
2013-08-14 19:26:00,69.8,59.5,0.00,NW,315,0.0,0.0,70,0.00,,,0.00,WUHU216HW,2013-08-14 23:26:00,
2013-08-14 19:31:00,69.6,59.3,0.00,NW,315,0.0,0.0,70,0.00,,,0.00,WUHU216HW,2013-08-14 23:31:00,
2013-08-14 19:36:00,69.4,59.2,0.00,NW,315,0.0,0.0,70,0.00,,,0.00,WUHU216HW,2013-08-14 23:36:00,
2013-08-14 19:41:00,69.2,59.4,0.00,NW,315,0.0,0.0,71,0.00,,,0.00,WUHU216HW,2013-08-14 23:41:00,
2013-08-14 19:46:00,69.0,59.2,0.00,NW,315,0.0,0.0,71,0.00,,,0.00,WUHU216HW,2013-08-14 23:46:00,
2013-08-14 19:51:00,68.7,59.3,0.00,NW,315,0.0,0.0,72,0.00,,,0.00,WUHU216HW,2013-08-14 23:51:00,
2013-08-14 19:56:00,68.5,59.5,0.00,NW,315,0.0,0.0,73,0.00,,,0.00,WUHU216HW,2013-08-14 23:56:00,
2013-08-14 20:01:00,68.3,59.3,0.00,NW,315,0.0,0.0,73,0.00,,,0.00,WUHU216HW,2013-08-15 00:01:00,
2013-08-14 20:06:00,68.1,59.5,0.00,NW,315,0.0,0.0,74,0.00,,,0.00,WUHU216HW,2013-08-15 00:06:00,
2013-08-14 20:11:00,67.8,59.2,0.00,NW,315,0.0,0.0,74,0.00,,,0.00,WUHU216HW,2013-08-15 00:11:00,
2013-08-14 20:16:00,67.6,59.4,0.00,NW,315,0.0,0.0,75,0.00,,,0.00,WUHU216HW,2013-08-15 00:16:00,
2013-08-14 20:21:00,67.2,59.0,0.00,NW,315,0.0,0.0,75,0.00,,,0.00,WUHU216HW,2013-08-15 00:21:00,
2013-08-14 20:26:00,67.1,59.2,0.00,NW,315,0.0,0.0,76,0.00,,,0.00,WUHU216HW,2013-08-15 00:26:00,
2013-08-14 20:31:00,66.9,59.4,0.00,NW,315,0.0,0.0,77,0.00,,,0.00,WUHU216HW,2013-08-15 00:31:00,
2013-08-14 20:36:00,66.7,59.3,0.00,NW,315,0.0,0.0,77,0.00,,,0.00,WUHU216HW,2013-08-15 00:36:00,
2013-08-14 20:41:00,66.7,59.3,0.00,NW,315,0.0,0.0,77,0.00,,,0.00,WUHU216HW,2013-08-15 00:41:00,
2013-08-14 20:46:00,66.7,59.6,0.00,NW,315,0.0,0.0,78,0.00,,,0.00,WUHU216HW,2013-08-15 00:46:00,
2013-08-14 20:51:00,66.5,59.5,0.00,NW,315,0.0,0.0,78,0.00,,,0.00,WUHU216HW,2013-08-15 00:51:00,
2013-08-14 20:56:00,66.3,59.7,0.00,NW,315,0.0,0.0,79,0.00,,,0.00,WUHU216HW,2013-08-15 00:56:00,
2013-08-14 21:01:00,66.2,59.5,0.00,NW,315,0.0,0.0,79,0.00,,,0.00,WUHU216HW,2013-08-15 01:01:00,
2013-08-14 21:06:00,66.0,59.3,0.00,NW,315,0.0,0.0,79,0.00,,,0.00,WUHU216HW,2013-08-15 01:06:00,
2013-08-14 21:11:00,66.0,59.7,0.00,NW,315,0.0,0.0,80,0.00,,,0.00,WUHU216HW,2013-08-15 01:11:00,
2013-08-14 21:16:00,66.0,59.7,0.00,NW,315,0.0,0.0,80,0.00,,,0.00,WUHU216HW,2013-08-15 01:16:00,
2013-08-14 21:21:00,66.0,59.7,0.00,NW,315,0.0,0.0,80,0.00,,,0.00,WUHU216HW,2013-08-15 01:21:00,
2013-08-14 21:26:00,66.0,59.7,0.00,NW,315,0.0,0.0,80,0.00,,,0.00,WUHU216HW,2013-08-15 01:26:00,
2013-08-14 21:31:00,66.0,59.7,0.00,NW,315,0.0,0.0,80,0.00,,,0.00,WUHU216HW,2013-08-15 01:31:00,
2013-08-14 21:36:00,66.0,59.7,0.00,NW,315,0.0,0.0,80,0.00,,,0.00,WUHU216HW,2013-08-15 01:36:00,
2013-08-14 21:41:00,66.0,59.7,0.00,NW,315,0.0,0.0,80,0.00,,,0.00,WUHU216HW,2013-08-15 01:41:00,
2013-08-14 21:46:00,66.0,59.7,0.00,NW,315,0.0,0.0,80,0.00,,,0.00,WUHU216HW,2013-08-15 01:46:00,
2013-08-14 21:51:00,65.8,59.5,0.00,NW,315,0.0,0.0,80,0.00,,,0.00,WUHU216HW,2013-08-15 01:51:00,
2013-08-14 21:56:00,65.6,59.3,0.00,NW,315,0.0,0.0,80,0.00,,,0.00,WUHU216HW,2013-08-15 01:56:00,
2013-08-14 22:01:00,65.4,59.1,0.00,NW,315,0.0,0.0,80,0.00,,,0.00,WUHU216HW,2013-08-15 02:01:00,
2013-08-14 22:06:00,65.1,58.8,0.00,NW,315,0.0,0.0,80,0.00,,,0.00,WUHU216HW,2013-08-15 02:06:00,
2013-08-14 22:11:00,64.9,58.9,0.00,NW,315,0.0,0.0,81,0.00,,,0.00,WUHU216HW,2013-08-15 02:11:00,
2013-08-14 22:16:00,64.7,58.7,0.00,NW,315,0.0,0.0,81,0.00,,,0.00,WUHU216HW,2013-08-15 02:16:00,
2013-08-14 22:21:00,64.4,58.2,0.00,NW,315,0.0,0.0,81,0.00,,,0.00,WUHU216HW,2013-08-15 02:21:00,
2013-08-14 22:26:00,64.2,58.2,0.00,NW,315,0.0,0.0,81,0.00,,,0.00,WUHU216HW,2013-08-15 02:26:00,
2013-08-14 22:31:00,64.0,58.4,0.00,NW,315,0.0,0.0,82,0.00,,,0.00,WUHU216HW,2013-08-15 02:31:00,
2013-08-14 22:36:00,63.6,58.0,0.00,NW,315,0.0,0.0,82,0.00,,,0.00,WUHU216HW,2013-08-15 02:36:00,
2013-08-14 22:41:00,63.5,58.0,0.00,NW,315,0.0,0.0,82,0.00,,,0.00,WUHU216HW,2013-08-15 02:41:00,
2013-08-14 22:46:00,63.5,57.8,0.00,NW,315,0.0,0.0,82,0.00,,,0.00,WUHU216HW,2013-08-15 02:46:00,
2013-08-14 22:51:00,63.5,57.8,0.00,NW,315,0.0,0.0,82,0.00,,,0.00,WUHU216HW,2013-08-15 02:51:00,
2013-08-14 22:56:00,63.3,58.0,0.00,NW,315,0.0,0.0,83,0.00,,,0.00,WUHU216HW,2013-08-15 02:56:00,
2013-08-14 23:01:00,63.3,58.0,0.00,NW,315,0.0,0.0,83,0.00,,,0.00,WUHU216HW,2013-08-15 03:01:00,
2013-08-14 23:06:00,63.1,57.8,0.00,NW,315,0.0,0.0,83,0.00,,,0.00,WUHU216HW,2013-08-15 03:06:00,
2013-08-14 23:11:00,63.1,57.8,0.00,NW,315,0.0,0.0,83,0.00,,,0.00,WUHU216HW,2013-08-15 03:11:00,
2013-08-14 23:16:00,63.1,57.8,0.00,NW,315,0.0,0.0,83,0.00,,,0.00,WUHU216HW,2013-08-15 03:16:00,
2013-08-14 23:21:00,63.1,58.2,0.00,NW,315,0.0,0.0,84,0.00,,,0.00,WUHU216HW,2013-08-15 03:21:00,
2013-08-14 23:26:00,63.3,58.3,0.00,NW,315,0.0,0.0,84,0.00,,,0.00,WUHU216HW,2013-08-15 03:26:00,
2013-08-14 23:31:00,63.3,58.3,0.00,NW,315,0.0,0.0,84,0.00,,,0.00,WUHU216HW,2013-08-15 03:31:00,
2013-08-14 23:36:00,63.5,58.5,0.00,NW,315,0.0,0.0,84,0.00,,,0.00,WUHU216HW,2013-08-15 03:36:00,
2013-08-14 23:41:00,63.5,58.5,0.00,NW,315,0.0,0.0,84,0.00,,,0.00,WUHU216HW,2013-08-15 03:41:00,
2013-08-14 23:46:00,63.5,58.5,0.00,NW,315,0.0,0.0,84,0.00,,,0.00,WUHU216HW,2013-08-15 03:46:00,
2013-08-14 23:52:00,63.5,58.5,0.00,NW,315,0.0,0.0,84,0.00,,,0.00,WUHU216HW,2013-08-15 03:52:00,
2013-08-14 23:57:00,63.5,58.5,0.00,NW,315,0.0,0.0,84,0.00,,,0.00,WUHU216HW,2013-08-15 03:57:00,